Regional Weather Roundup
Issued by NWS Lake Charles, LA

Home | Current Version | Previous Version | Text Only | Print | Product List | Glossary On
Versions: 1 2 3 4 5 6 7 8 9 10 11 12 13 14 15 16 17 18 19 20 21 22 23 24 25 26 27 28 29 30 31 32 33 34 35 36 37 38 39 40 41 42 43 44 45 46 47 48 49 50
869
ASUS44 KLCH 301110
RWRLCH
REGIONAL WEATHER ROUNDUP
NATIONAL WEATHER SERVICE LAKE CHARLES LA
600 AM CDT FRI SEP 30 2016

Note: "fair" indicates few or no clouds below 12,000 feet with no
significant weather and/or obstructions to visibility.


ACROSS SOUTHEAST TEXAS

CITY           SKY/WX    TMP DP  RH WIND       PRES   REMARKS
BEAUMONT       CLEAR     57  53  86 N6        30.13R
BEAUMONT CITY  FAIR      53  51  93 N3        30.15R
ORANGE         SUNNY     56  56 100 N3        30.14S
JASPER         CLEAR     54  53  97 CALM      30.17R
$$

ACROSS CENTRAL LOUISIANA

CITY           SKY/WX    TMP DP  RH WIND       PRES   REMARKS
LEESVILLE      CLEAR     55  53  92 N2        30.13R
FULLERTON      FAIR      52  51  97 CALM      30.11R
ALEXANDRIA INT CLEAR     54  53  97 CALM      30.11S
ESLER FIELD    CLEAR     52  52 100 CALM      30.12S
DERIDDER       FAIR      53  52  95 CALM      30.15R
OAKDALE        SUNNY     50  50  98 CALM      30.13R
OPELOUSAS      FAIR      52  52  99 CALM      30.11S
$$

ACROSS SOUTHWEST AND SOUTH CENTRAL LOUISIANA

CITY           SKY/WX    TMP DP  RH WIND       PRES   REMARKS
SULPHUR        MOSUNNY   58  55  89 N3        30.13R
LAKE CHARLES   PTCLDY    59  53  80 N5        30.12R
CHENNAULT INT  CLEAR     55  54  94 N8        30.12S
CAMERON PHI    SUNNY     63  55  77 NE7       30.11R
DEQUINCY       FAIR      52  51  96 CALM      30.14R
JENNINGS       FAIR      56  54  93 CALM      30.12S
LAFAYETTE      CLEAR     58  54  86 N5        30.11R
NEW IBERIA     CLEAR     57  52  83 N7        30.11S
ABBEVILLE      FAIR      54  54 100 N3        30.11S
PATTERSON      CLEAR     60  56  86 N5        30.10R
SALT POINT     NOT AVBL
$$

SELECTED SITES ACROSS THE REGION

CITY           SKY/WX    TMP DP  RH WIND       PRES   REMARKS
HOUSTON BUSH   CLEAR     60  54  80 CALM      30.15S
HOUSTON HOBBY  CLEAR     62  54  74 N5        30.14R
GALVESTON      CLEAR     67  60  78 NE9       30.13S
COLLEGE STAT   CLEAR     58  53  84 N3        30.17S
CONROE         CLEAR     52  50  93 NW3       30.16S
HUNTSVILLE     CLEAR     55  51  86 CALM      30.17S
LUFKIN         CLEAR     52  50  93 N3        30.16R
SHREVEPORT     CLEAR     56  53  90 W5        30.15R
MONROE         CLEAR     57  53  86 N3        30.13S
NATCHEZ MS     CLEAR     52  48  87 CALM      30.12R
BATON ROUGE    CLEAR     57  53  86 CALM      30.10S
N.O. INTL ARPT CLEAR     71  56  58 NE8       30.08R
SLIDELL        CLEAR     54  52  93 CALM      30.09R
$$

MARINE REPORTS

STATION/POSITION TIME  SKY/WX   TEMP    WIND        PRES    VSBY
                                AIR SEA DIR/SP/G
                 (UTC)          (F)     (DEG/KT/KT) (MB)    (MI)
BUOY 30 S HIGH I 1050            74 84   40/ 12/ 14 1019.6R
WVE H/P(F/S)=  3/ 5

SEA RIM ST PARK  1100            62     350/  7/  7 1020.7R
PORT ARTHUR      1000               83   20/  7/  9 1019.9S
SABINE PASS N    1000            64 81   20/  7/  8 1021.2R
TEXAS POINT      NOT AVBL
CALCASIEU PASS   1000            65 80   60/  6/  6   N/A
LK CHARLES BEACH 1000            63 81              1020.0S
MARSH ISLAND     1000            70                   N/A
FRESH WATER LOCK 1000            62 84  340/  5/  6 1019.8S
AMERADA PASS     1000            63 81  340/  2/  5 1018.3R
$$




USA.gov is the U.S. government's official web portal to all federal, state and local government web resources and services.